Regional Weather Roundup
Issued by NWS Midland/Odessa, TX

Skip options and go directly to product.
Home | Oldest Version | Previous Version | Current Version | All | Text Only | Save Text | Print | Product List | Glossary On

Skip product version selection by date and time.   
711
ASUS44 KMAF 310710
RWRMAF
MIDLAND AREA WEATHER ROUNDUP
NATIONAL WEATHER SERVICE MIDLAND TX
200 AM CDT FRI OCT 31 2014

...IN SOUTHWEST TEXAS AND SOUTHEAST NEW MEXICO...

CITY           SKY/WX    TMP DP  RH WIND       PRES   REMARKS
ALPINE         CLEAR     54  40  59 N5        30.36R
ANDREWS        FAIR      52  39  61 NE6       30.32R
ARTESIA        NOT AVBL
BIG SPRING     CLEAR     61  39  44 NE9       30.30R
CARLSBAD       MOCLDY    56  47  71 N6        30.32R
DRYDEN           N/A     68  61  78 N9        30.14S
FORT STOCKTON  CLEAR     59  48  67 N7        30.25R
GUAD PASS      MOCLDY    55  48  77 NE40      30.34R
HOBBS          CLEAR     55  32  41 NE10      30.34R
MARFA          CLEAR     57  39  51 N16       30.32S
MIDLAND AIRPK  CLEAR     61  41  47 NE7       30.29R
MIDLAND INTL   CLEAR     63  41  44 E13       30.28R
ODESSA         CLEAR     62  42  47 E14       30.29R
PECOS          CLEAR     56  48  75 N6        30.27R
PRESIDIO       FAIR      72  40  31 N9G20     30.18S
SEMINOLE       CLEAR     53  35  52 NE8       30.33S
SNYDER         CLEAR     56  37  48 N7        30.30R
WINK           CLEAR     63  48  58 NE13      30.26R
$$
...OTHER STATIONS IN TEXAS...

CITY           SKY/WX    TMP DP  RH WIND       PRES   REMARKS
ABILENE        CLEAR     62  38  40 NE3       30.26S
AMARILLO       CLEAR     47  30  51 NE6       30.39R
AUSTIN         CLOUDY    65  59  81 N3        30.13R
BROWNSVILLE    CLEAR     70  68  93 CALM      30.07S
CORPUS CHRISTI PTCLDY    70  68  93 SE3       30.07S
DALLAS FTW     CLEAR     58  50  75 NW12      30.18R
DEL RIO        CLEAR     69  60  73 NE7       30.08S
EL PASO        MOCLDY    63  35  35 SE6       30.26R
HOUSTON INT    MOCLDY    63  55  75 N3        30.11R
LUBBOCK        CLEAR     46  33  60 NE7       30.34R
SAN ANGELO     CLOUDY    70  59  68 NE14      30.22R
SAN ANTONIO    MOCLDY    69  63  81 N3        30.10S
WACO           CLEAR     62  58  86 N7        30.16S
WICHITA FALLS  NOT AVBL
$$
...OTHER LOCATIONS IN NEW MEXICO...

CITY           SKY/WX    TMP DP  RH WIND       PRES   REMARKS
ALAMAGORDO     NOT AVBL
ALBUQUERQUE    CLEAR     58  23  26 E22       30.33S
CANNON AFB     CLEAR     45  29  53 NE7       30.38R
CLOVIS         CLEAR     43  27  52 NE9       30.40S WCI  37
HOLLOMAN AFB   PTCLDY    52  33  47 W5        30.25S
ROSWELL        CLEAR     51  32  48 NW6       30.35R
RUIDOSO        CLEAR     41  27  56 S6        30.47S WCI  37
SANTA FE       CLEAR     43  19  38 SW8       30.41R WCI  38
TRUTH OR CONSE PTCLDY    52  27  38 NW8       30.28S
TUCUMCARI      CLEAR     44  25  47 NE5       30.38R
$$

USA.gov is the U.S. government's official web portal to all federal, state and local government web resources and services.